Weather History for KCOF - July, 2013

Change the Weather History Date:

Thursday, July 18, 2013

  Actual Average Record
Temperature  
Mean Temperature 79 °F -  
Max Temperature 83 °F 85 °F 95 °F (2000)
Min Temperature 75 °F 74 °F 71 °F (1997)
Cooling Degree Days 14    
Growing Degree Days 29 (Base 50)    
Moisture  
Dew Point 73 °F    
Average Humidity 86    
Maximum Humidity 94    
Minimum Humidity 74    
Precipitation  
Precipitation 0.05 in - - ()
Sea Level Pressure  
Sea Level Pressure 30.12 in    
Wind  
Wind Speed 8 mph (SE)    
Max Wind Speed 12 mph    
Max Gust Speed -    
Visibility 10 miles    
Events Rain    
Averages and records for this station are not official NWS values.
T = Trace of Precipitation, MM = Missing Value Source: NWS Daily Summary

Daily Weather History Graph

Daily Weather History Graph

Search for Another Location

Airport or City:

Trip Planner

Search our weather history database for the weather conditions in past years. The results will help you decide how hot, cold, wet, or windy it might be!

Date:

Astronomy

Jul. 18, 2013 Rise Set
Actual Time 6:37 AM EDT 8:20 PM EDT
Civil Twilight 6:10 AM EDT 8:46 PM EDT
Nautical Twilight 5:39 AM EDT 9:17 PM EDT
Astronomical Twilight 5:06 AM EDT 9:50 PM EDT
Moon 4:17 PM EDT (7/18) 2:21 AM EDT (7/18)
Length of Visible Light 14h 35m
Length of Day
13h 43m
Waxing Gibbous, 77% of the Moon is Illuminated
Jul 18
Waxing Gibbous
Jul 22
Full
Jul 29
Last Quarter
Aug 6
New
Aug 14
First Quarter

Hourly Weather History & Observations

Time (EDT) Temp. Heat Index Dew Point Humidity Pressure Visibility Wind Dir Wind Speed Gust Speed Precip Events Conditions
12:58 AM 77.5 °F - 73.8 °F 88% 30.14 in 10.0 mi ESE 4.6 mph - N/A   Clear
1:58 AM 77.7 °F - 73.9 °F 88% 30.12 in 10.0 mi East 5.8 mph - N/A   Clear
2:58 AM 77.5 °F - 74.3 °F 90% 30.12 in 10.0 mi ENE 4.6 mph - N/A   Clear
3:58 AM 77.5 °F - 74.5 °F 90% 30.11 in 10.0 mi East 3.5 mph - N/A   Clear
4:58 AM 77.5 °F - 74.7 °F 91% 30.11 in 10.0 mi ENE 4.6 mph - N/A   Clear
5:58 AM 77.5 °F - 74.8 °F 91% 30.12 in 10.0 mi ENE 5.8 mph - N/A   Clear
6:46 AM 75.2 °F - 71.6 °F 89% 30.11 in 10.0 mi SSE 10.4 mph - N/A   Light Drizzle
6:55 AM 75.2 °F - 71.6 °F 89% 30.11 in 10.0 mi SSE 11.5 mph - N/A   Partly Cloudy
6:58 AM 75.7 °F - 71.4 °F 86% 30.12 in 10.0 mi South 10.4 mph - 0.00 in   Partly Cloudy
7:49 AM 77.0 °F - 71.6 °F 83% 30.12 in 10.0 mi East 6.9 mph - N/A   Light Drizzle
7:58 AM 76.6 °F - 71.6 °F 84% 30.14 in 10.0 mi East 6.9 mph - 0.00 in Rain Light Rain
8:31 AM 75.2 °F - 71.6 °F 89% 30.14 in 10.0 mi East 5.8 mph - N/A   Partly Cloudy
8:35 AM 75.2 °F - 71.6 °F 89% 30.14 in 10.0 mi East 5.8 mph - N/A   Light Drizzle
8:57 AM 77.0 °F - 73.4 °F 89% 30.14 in 10.0 mi ESE 9.2 mph - N/A   Partly Cloudy
8:58 AM 76.1 °F - 73.0 °F 90% 30.16 in 10.0 mi ESE 9.2 mph - 0.02 in   Partly Cloudy
9:01 AM 77.0 °F - 73.4 °F 89% 30.14 in 10.0 mi ESE 9.2 mph - N/A   Light Drizzle
9:17 AM 77.0 °F - 73.4 °F 89% 30.15 in 10.0 mi East 6.9 mph - N/A   Clear
9:45 AM 77.0 °F - 71.6 °F 83% 30.15 in 10.0 mi ESE 8.1 mph - N/A   Light Drizzle
9:56 AM 77.0 °F - 73.4 °F 89% 30.15 in 10.0 mi SE 10.4 mph - N/A Rain Light Rain
10:56 AM 77.0 °F - 73.4 °F 89% 30.15 in 10.0 mi ESE 8.1 mph - N/A   Partly Cloudy
10:59 AM 77.0 °F - 73.4 °F 89% 30.15 in 10.0 mi SE 9.2 mph - N/A   Partly Cloudy
11:14 AM 77.0 °F - 73.4 °F 89% 30.15 in 10.0 mi SE 10.4 mph - N/A Rain Light Rain
11:23 AM 78.8 °F - 73.4 °F 83% 30.15 in 10.0 mi SE 8.1 mph - N/A   Clear
11:51 AM 78.8 °F - 73.4 °F 83% 30.14 in 10.0 mi ESE 9.2 mph - N/A   Light Drizzle
11:56 AM 80.6 °F 85.4 °F 73.4 °F 79% 30.14 in 10.0 mi ESE 9.2 mph - N/A   Light Drizzle
12:03 PM 78.8 °F - 73.4 °F 83% 30.14 in 10.0 mi ESE 9.2 mph - N/A   Clear
12:56 PM 80.6 °F 85.4 °F 73.4 °F 79% 30.14 in 10.0 mi SE 11.5 mph - N/A   Partly Cloudy
1:58 PM 82.8 °F 89.5 °F 74.7 °F 76% 30.14 in 10.0 mi ESE 9.2 mph - N/A   Partly Cloudy
2:58 PM 83.1 °F 89.8 °F 74.1 °F 74% 30.12 in 10.0 mi ESE 11.5 mph - N/A   Clear
3:58 PM 81.7 °F 87.1 °F 73.6 °F 76% 30.12 in 10.0 mi SE 11.5 mph - N/A   Clear
4:58 PM 81.7 °F 87.6 °F 74.3 °F 78% 30.11 in 10.0 mi ESE 10.4 mph - N/A   Clear
5:58 PM 81.1 °F 86.8 °F 74.5 °F 80% 30.09 in 10.0 mi ESE 9.2 mph - N/A   Clear
6:58 PM 80.4 °F 85.6 °F 74.7 °F 83% 30.09 in 10.0 mi SSE 9.2 mph - N/A   Clear
7:58 PM 79.7 °F - 72.9 °F 80% 30.11 in 10.0 mi SSE 11.5 mph - N/A   Clear
8:58 PM 79.0 °F - 73.0 °F 82% 30.11 in 10.0 mi SSE 6.9 mph - N/A   Clear
9:47 PM 78.8 °F - 73.4 °F 83% 30.10 in 10.0 mi SSW 11.5 mph - N/A Rain Light Rain
9:52 PM 78.8 °F - 73.4 °F 83% 30.10 in 6.0 mi SSW 9.2 mph - N/A Rain Light Rain
9:57 PM 78.8 °F - 75.2 °F 89% 30.10 in 6.0 mi SW 9.2 mph - N/A Rain Rain
9:58 PM 78.3 °F - 74.3 °F 88% 30.10 in 6.0 mi SW 9.2 mph - 0.02 in Rain Rain
10:03 PM 77.0 °F - 75.2 °F 94% 30.10 in 10.0 mi SW 10.4 mph - N/A Rain Light Rain
10:07 PM 77.0 °F - 75.2 °F 94% 30.10 in 10.0 mi WSW 11.5 mph - N/A   Mostly Cloudy
10:17 PM 77.0 °F - 73.4 °F 89% 30.10 in 10.0 mi SW 9.2 mph - N/A   Scattered Clouds
10:58 PM 76.6 °F - 73.2 °F 89% 30.11 in 10.0 mi SW 5.8 mph - 0.01 in   Clear
11:58 PM 75.7 °F - 73.4 °F 92% 30.12 in 10.0 mi SSW 8.1 mph - N/A   Clear